Temperature
18 18 18 18 18 18 18 18 18 18 19 19 19 19 19 19 19 18 18 18 18 18 18 18 18 18 18 18 18 17 17 17 17 17 17 17 17 17 17 17 17 17 17
18 18 18 18 18 18 18 18 18 18 19 19 19 19 19 19 18 18 18 18 18 18 18 18 18 18 18 18 17 17 17 17 17 17 17 17 17 17 17 17 17 17 17
18 18 18 18 18 18 18 18 18 18 19 19 19 19 19 19 19 18 18 18 18 18 17 17 17 17 17 17 17 17 17 17 17 17 17 17 17 17 17 17 17 17 17
18 18 18 18 18 18 18 18 18 18 19 19 19 19 19 19 19 18 18 18 18 18 17 17 17 17 17 17 17 17 17 17 17 17 17 17 17 17 17 17 17 17 17
18 18 18 18 18 18 18 18 18 18 18 18 18 18 18 18 18 18 18 18 18 17 17 17 17 17 17 17 17 17 17 17 17 17 17 17 17 17 17 17 17 17 17
17 17 17 17 18 18 18 18 18 18 18 18 18 18 18 18 18 18 18 18 18 18 17 17 17 17 17 17 17 17 17 17 17 17 17 17 17 17 17 17 17 17 17
17 17 17 17 17 17 17 17 18 18 18 18 18 18 18 18 18 18 18 18 18 18 18 17 17 17 17 17 17 17 17 17 17 17 17 17 17 17 17 17 17 17 17
16 17 17 17 17 17 17 17 17 17 17 17 17 17 17 18 18 18 18 18 18 18 18 17 17 17 17 17 17 17 17 17 17 17 17 17 17 17 17 17 17 17 17
16 16 16 17 17 17 17 17 17 17 17 17 17 17 17 17 18 18 18 18 18 18 18 18 17 17 17 17 17 17 17 17 17 17 17 17 17 17 17 17 17 16 16
16 16 16 16 16 16 16 17 17 17 17 17 17 17 17 17 17 17 18 18 18 18 18 18 17 17 17 17 17 17 17 17 17 17 17 17 17 17 16 16 16 16 16
15 15 16 16 16 16 16 16 16 16 16 16 16 16 16 16 17 17 17 17 17 17 17 17 17 17 17 17 17 17 17 17 17 17 17 17 16 16 16 16 16 16 16
15 15 15 15 15 16 16 16 16 16 16 16 16 16 16 16 16 16 16 17 17 17 17 17 17 17 17 17 16 16 16 17 17 16 16 16 16 16 16 16 16 16 16
14 15 15 15 15 15 15 15 16 16 16 16 16 16 16 16 16 16 16 16 16 16 16 16 16 16 16 16 16 16 16 16 16 16 16 16 16 16 16 16 16 16 16
14 14 14 14 15 15 15 15 15 15 15 15 15 15 16 16 16 16 16 16 16 16 16 16 16 16 16 16 16 16 16 16 16 16 16 16 16 15 15 15 15 15 15
13 14 14 14 14 14 15 15 15 15 15 15 15 15 15 15 15 15 15 15 15 15 15 15 16 16 16 16 16 15 16 16 15 15 15 15 15 15 15 15 15 15 15
13 13 14 14 14 14 14 14 15 15 15 15 15 15 15 15 15 15 15 15 15 15 15 15 15 15 15 15 15 15 15 15 15 15 15 15 15 15 15 15 15 15 15
13 13 13 13 14 14 14 14 14 14 14 14 14 15 15 15 15 15 15 15 15 15 15 15 15 15 15 15 15 15 15 15 14 14 15 15 15 14 15 15 14 14 14
12 13 13 13 13 13 14 14 14 14 14 14 14 14 14 14 14 14 14 14 14 14 14 14 14 14 14 14 14 14 14 14 14 14 14 14 14 14 14 14 14 14 14
12 12 12 13 13 13 13 14 14 14 14 14 14 14 14 14 14 14 14 14 14 14 14 14 14 14 14 14 14 14 14 14 14 14 14 14 14 14 14 14 14 13 13
12 12 12 12 12 13 13 13 14 14 14 14 14 14 14 14 14 14 14 14 14 14 14 14 14 14 14 14 14 14 13 13 13 13 13 13 13 13 13 13 13 13 13
11 12 12 12 12 13 13 13 13 13 13 13 13 13 13 13 13 13 14 14 14 14 14 14 14 13 13 13 13 13 13 13 13 13 13 12 12 12 13 12 12 13 12
11 11 12 12 12 12 12 13 13 13 13 13 13 13 13 13 13 13 13 13 13 14 14 13 13 13 13 13 13 13 13 13 12 12 12 12 12 12 12 12 12 12 12
11 11 11 11 12 12 12 12 12 12 12 12 12 13 13 13 13 13 13 13 13 13 13 13 13 13 13 13 13 13 13 13 13 12 12 12 11 11 11 11 11 11 11
11 11 11 11 11 12 12 12 12 12 12 12 12 12 12 12 12 13 13 13 13 13 13 13 13 13 13 13 13 13 13 12 12 12 12 11 11 11 11 11 11 11 11
11 11 11 11 11 11 11 11 12 12 12 12 12 12 12 12 12 12 13 13 13 13 13 13 13 13 13 13 12 12 12 12 12 11 11 11 11 10 10 10 10 10 10
10 11 11 11 11 11 11 12 12 12 11 12 12 12 12 12 12 12 12 13 12 12 12 12 12 12 12 12 12 12 12 12 12 11 11 11 11 10 10 10 9 10 10
Wind_Speed
5 4 4 5 7 9 9 6 7 7 6 6 5 5 5 6 8 12 12 12 10 8 7 7 7 7 7 8 8 8 8 8 8 8 8 8 8 7 7 7 6 6 5
5 5 5 3 4 5 6 7 5 5 3 2 2 1 3 5 6 12 13 13 12 10 8 7 7 7 7 8 8 8 8 8 8 8 8 7 7 7 6 5 5 5 4
6 5 5 4 3 6 6 4 5 4 4 3 3 2 2 3 5 10 13 13 12 11 10 9 8 7 8 8 8 8 8 8 8 8 8 7 7 6 5 4 4 3 2
8 5 5 4 5 6 3 3 2 2 2 2 3 3 3 3 3 6 10 13 14 13 12 11 10 9 8 8 8 8 8 8 8 8 8 7 6 5 5 4 3 3 2
8 4 5 5 5 3 4 4 3 3 2 2 2 3 3 4 3 4 5 9 13 15 14 14 13 10 9 9 9 9 9 9 8 8 7 7 6 6 5 4 3 3 2
8 6 5 5 4 4 4 3 3 3 2 2 3 3 3 3 3 3 3 5 9 14 16 15 14 12 12 11 10 10 10 9 9 8 8 7 6 6 5 4 4 3 2
7 5 5 5 5 5 5 5 4 3 2 2 1 1 1 2 3 4 3 3 5 9 15 17 15 14 13 13 13 12 11 10 10 9 8 7 6 6 5 5 4 3 2
5 5 6 6 6 5 6 6 4 3 3 2 2 1 1 3 2 3 3 3 3 5 7 13 14 15 15 14 14 15 13 12 11 10 8 8 7 6 5 4 3 3 2
3 3 4 5 6 6 6 6 6 6 4 3 3 4 3 4 2 2 4 4 4 3 3 5 9 13 15 16 16 17 15 13 11 10 9 8 7 7 6 5 4 3 2
3 3 4 5 6 5 6 6 6 5 6 5 3 2 3 3 3 2 3 3 4 3 3 3 3 7 11 14 17 19 18 15 13 11 10 9 8 7 7 5 5 4 3
2 2 2 3 4 4 6 6 6 6 6 5 4 3 3 2 3 3 3 2 1 1 2 2 2 2 6 10 14 18 20 17 15 12 11 10 9 8 7 6 5 4 3
3 3 2 2 2 3 5 5 6 7 6 6 5 4 4 3 4 3 4 3 2 2 2 1 1 2 4 8 11 17 19 18 16 14 12 10 9 9 8 7 6 5 4
3 3 3 2 2 3 4 4 5 6 6 6 6 5 5 5 3 3 4 3 2 1 1 1 2 2 4 7 8 14 16 16 15 14 13 11 10 8 8 7 6 5 4
4 4 3 2 2 2 3 4 4 5 5 5 6 5 4 4 3 3 3 3 2 2 2 2 1 1 3 6 8 11 12 15 15 14 13 11 10 9 8 7 6 5 4
4 5 4 3 1 1 2 3 3 4 4 5 5 5 4 4 4 3 3 4 4 3 4 3 2 1 3 5 8 8 7 12 13 12 11 10 10 9 8 7 6 4 3
6 5 4 4 3 2 0 1 2 2 3 3 4 4 4 4 4 3 3 3 4 4 3 3 2 2 2 4 7 7 6 8 10 10 10 9 9 8 7 6 5 4 3
7 6 5 5 4 3 1 1 1 2 2 2 2 3 4 4 4 4 4 4 4 4 3 2 2 2 3 2 3 5 7 8 8 9 9 8 8 7 6 6 5 4 3
7 7 6 5 5 4 3 2 1 2 2 2 2 3 3 3 4 3 4 4 4 4 3 3 2 2 2 3 4 4 5 7 8 10 10 9 8 6 6 5 4 3 2
9 9 8 7 7 6 5 4 2 1 2 2 3 3 3 3 3 3 3 3 3 3 3 3 3 2 2 3 3 3 4 4 7 10 10 9 8 7 6 6 5 4 3
9 9 9 9 8 7 8 7 5 4 3 3 3 3 3 3 3 3 3 3 3 3 4 4 3 2 2 3 3 3 3 3 4 7 8 10 10 10 9 8 7 6 5
10 9 9 10 9 8 9 9 7 6 6 6 6 5 5 6 5 4 3 3 3 3 4 4 3 3 3 3 3 3 5 5 4 4 5 6 8 8 9 10 9 8 8
9 9 9 10 10 10 12 13 9 6 6 6 6 5 6 7 8 8 8 7 5 4 4 4 3 4 4 3 4 4 5 5 3 3 5 6 7 7 8 9 10 11 10
8 9 9 9 9 11 14 13 12 6 6 6 6 5 5 7 7 5 7 9 9 8 5 4 5 4 4 3 4 4 4 4 4 4 6 5 5 6 8 10 12 12 12
7 7 7 8 8 12 16 14 10 6 6 6 6 7 6 7 7 6 6 8 8 8 7 6 6 5 5 4 4 5 6 6 5 4 4 4 3 4 6 9 12 13 14
6 6 6 8 8 11 16 15 10 5 5 7 8 8 8 8 10 9 7 8 8 7 10 13 12 11 12 11 7 5 5 6 4 2 2 3 4 4 4 3 8 12 14
5 5 6 7 8 9 15 16 12 5 6 6 7 8 12 10 10 8 6 6 7 5 5 6 7 8 8 9 9 5 4 5 4 3 2 3 4 4 3 2 3 6 10
Wind_Direction
216 227 227 200 200 201 196 200 209 228 219 227 214 202 173 166 143 132 141 149 149 156 162 163 158 154 154 151 148 145 142 140 138 137 135 133 131 127 126 124 120 118 113
218 221 226 215 208 224 208 193 204 235 226 217 218 164 134 146 151 139 148 155 157 161 164 167 167 165 164 163 158 153 151 150 148 146 141 139 136 132 129 131 128 124 122
242 230 221 215 206 223 230 209 215 221 213 202 195 200 186 171 168 153 156 161 164 167 168 167 168 170 169 168 165 162 160 159 158 157 154 149 145 144 144 141 139 138 134
251 248 227 220 215 215 213 204 219 219 208 203 193 192 200 173 198 173 167 165 166 170 172 171 170 171 172 171 171 168 165 162 162 162 160 158 158 158 159 159 160 165 162
253 243 235 226 219 212 205 206 198 204 201 203 214 195 194 175 198 199 187 175 166 164 168 173 171 171 174 176 176 175 173 171 170 170 168 167 168 168 166 164 162 162 168
251 232 228 226 220 212 201 196 192 204 191 186 230 216 193 188 188 206 214 178 169 170 164 169 172 178 183 181 181 180 180 179 178 178 177 176 175 176 175 176 176 178 190
253 229 224 218 221 216 206 196 193 198 208 184 214 297 271 223 213 197 211 199 188 170 163 171 179 177 182 189 186 185 185 185 184 183 183 183 179 178 181 185 190 196 204
253 242 230 219 213 214 211 198 190 182 207 197 176 176 276 296 287 214 199 218 214 170 175 184 182 174 177 179 189 188 188 188 188 187 187 188 188 184 183 189 198 210 230
262 245 240 230 219 209 212 204 194 184 197 213 195 166 173 212 244 270 213 208 213 197 193 194 185 178 175 177 180 188 187 187 189 190 189 188 187 188 192 193 198 205 213
281 260 246 229 222 213 206 205 198 194 189 209 213 196 189 157 168 248 265 222 203 190 206 211 204 184 171 166 173 181 184 186 188 191 193 192 191 193 195 198 198 201 205
297 289 268 242 225 215 205 200 198 197 197 203 199 189 202 215 206 193 239 268 285 224 221 214 187 145 144 157 166 175 182 185 188 193 198 198 198 199 198 201 204 210 215
312 317 301 271 241 229 212 201 197 195 197 198 199 200 189 186 199 196 214 222 220 244 256 245 192 131 137 141 161 175 182 187 189 194 199 201 202 202 203 206 210 215 219
328 321 313 281 256 239 215 198 194 193 195 195 196 203 201 201 191 191 199 199 195 222 236 251 225 157 147 140 149 169 181 188 192 196 200 201 203 205 209 213 216 220 223
334 330 327 301 268 237 211 193 195 196 198 201 200 195 190 186 188 189 181 170 180 211 215 220 214 159 145 146 156 167 184 190 193 198 199 200 203 206 208 212 217 223 226
348 353 353 346 323 254 203 187 190 192 190 197 200 193 182 178 184 190 184 177 176 190 216 208 193 166 139 142 158 174 175 188 192 194 196 199 202 205 205 205 203 202 203
358 359 6 11 10 13 135 154 161 174 172 182 186 184 181 179 181 184 185 187 187 180 197 198 186 170 159 154 163 171 170 175 181 184 190 193 197 201 200 196 190 191 199
5 8 13 13 14 18 30 90 119 136 153 156 158 173 183 176 176 183 183 189 189 177 187 197 161 162 153 155 160 167 155 146 157 174 176 177 176 181 184 182 178 184 202
9 12 15 20 29 34 36 51 89 128 141 151 144 137 159 167 173 175 178 184 181 182 177 176 153 155 166 161 164 163 149 144 144 159 161 160 156 155 157 158 161 166 176
16 18 20 26 29 27 26 21 40 87 135 147 137 139 140 141 154 162 165 158 164 166 153 153 151 149 144 144 142 132 127 121 136 144 147 142 136 132 133 128 121 110 99
21 23 24 29 30 32 31 23 26 45 69 81 99 104 110 125 126 127 133 134 140 141 140 138 141 137 126 126 126 126 119 112 113 124 123 123 118 109 102 98 95 89 82
24 24 28 30 30 35 30 25 24 45 55 57 57 65 75 88 87 89 106 108 117 122 132 137 139 129 127 126 134 132 124 112 91 101 107 110 105 91 84 78 77 76 73
24 29 31 32 35 33 25 27 28 43 54 59 62 63 70 76 79 80 86 92 97 104 119 124 131 132 132 129 127 130 129 126 112 105 103 94 89 83 76 76 76 76 73
27 31 31 31 37 30 27 25 26 45 55 56 56 56 63 66 68 81 86 79 66 64 85 107 109 113 122 132 128 125 128 117 117 132 110 97 90 87 80 76 81 79 74
30 32 31 29 35 29 26 25 26 49 57 59 55 55 61 57 50 63 84 80 69 52 61 77 86 83 81 83 104 121 124 110 101 109 112 108 111 99 93 81 80 82 79
28 32 32 34 36 28 24 27 33 52 58 63 63 58 57 54 41 60 87 94 87 76 74 85 91 91 81 75 83 99 113 121 119 117 100 108 128 116 105 93 86 86 84
26 35 41 43 41 35 29 30 33 48 56 60 64 59 50 47 43 56 79 94 94 95 98 94 85 83 80 74 75 86 104 123 124 115 105 108 144 139 120 110 121 105 90
Height
1543 1545 1546 1547 1548 1549 1549 1551 1552 1554 1556 1558 1559 1560 1561 1562 1563 1562 1563 1564 1564 1564 1564 1565 1566 1567 1568 1569 1570 1571 1572 1573 1574 1575 1576 1577 1578 1579 1580 1581 1582 1583 1583
1540 1541 1542 1544 1545 1547 1548 1549 1551 1552 1555 1556 1557 1559 1560 1561 1562 1562 1562 1563 1563 1563 1564 1564 1565 1566 1567 1568 1570 1571 1572 1573 1574 1575 1576 1577 1578 1579 1580 1581 1582 1582 1583
1536 1537 1538 1540 1541 1543 1545 1547 1549 1550 1552 1554 1555 1557 1558 1559 1560 1561 1561 1561 1562 1562 1563 1563 1564 1565 1566 1568 1569 1570 1571 1572 1574 1575 1576 1577 1578 1579 1579 1580 1581 1582 1582
1531 1532 1534 1535 1537 1539 1541 1543 1545 1548 1549 1551 1553 1555 1556 1557 1559 1560 1560 1560 1560 1561 1562 1563 1563 1564 1565 1566 1568 1569 1570 1571 1573 1574 1575 1576 1577 1578 1579 1579 1580 1581 1581
1526 1527 1529 1531 1533 1535 1537 1539 1541 1544 1546 1548 1550 1552 1554 1555 1556 1558 1559 1559 1559 1560 1560 1561 1562 1563 1564 1565 1566 1568 1569 1570 1572 1573 1574 1575 1576 1577 1577 1578 1579 1580 1580
1521 1522 1524 1526 1528 1530 1532 1535 1537 1540 1543 1545 1548 1549 1551 1552 1554 1555 1557 1558 1558 1558 1559 1560 1561 1562 1563 1564 1565 1566 1567 1569 1570 1571 1572 1574 1574 1575 1576 1577 1578 1578 1579
1516 1517 1519 1520 1522 1525 1527 1530 1533 1536 1539 1542 1544 1546 1547 1549 1550 1552 1554 1555 1556 1557 1557 1558 1559 1560 1561 1562 1563 1564 1566 1567 1568 1570 1571 1572 1573 1574 1575 1576 1576 1577 1577
1511 1512 1514 1516 1518 1521 1523 1525 1528 1531 1534 1537 1540 1542 1544 1546 1547 1549 1550 1551 1553 1555 1555 1556 1557 1558 1559 1560 1562 1563 1564 1565 1567 1568 1569 1570 1571 1572 1573 1574 1575 1576 1576
1507 1508 1509 1511 1513 1515 1518 1520 1523 1526 1529 1533 1535 1538 1540 1541 1543 1545 1546 1547 1549 1551 1553 1554 1555 1556 1556 1558 1560 1561 1562 1564 1565 1566 1567 1569 1570 1571 1572 1573 1573 1574 1575
1504 1505 1506 1507 1508 1510 1513 1515 1517 1521 1524 1527 1530 1533 1536 1537 1539 1540 1542 1544 1545 1547 1549 1551 1552 1554 1555 1556 1557 1559 1560 1562 1563 1564 1566 1567 1568 1569 1570 1571 1572 1572 1573
1501 1501 1502 1503 1504 1506 1508 1510 1513 1516 1519 1522 1525 1527 1530 1533 1535 1537 1538 1539 1541 1543 1544 1547 1549 1551 1552 1553 1554 1556 1558 1559 1561 1562 1564 1565 1566 1567 1568 1569 1570 1571 1571
1499 1499 1499 1499 1500 1502 1503 1505 1508 1511 1514 1517 1520 1522 1525 1527 1530 1532 1534 1535 1537 1539 1541 1543 1544 1547 1548 1549 1551 1553 1555 1557 1559 1560 1562 1563 1564 1565 1566 1567 1568 1569 1569
1496 1496 1496 1496 1497 1498 1500 1501 1504 1506 1509 1512 1514 1517 1520 1522 1526 1528 1530 1532 1534 1535 1536 1538 1540 1542 1544 1546 1548 1549 1552 1553 1556 1558 1559 1561 1562 1563 1564 1565 1566 1567 1567
1495 1495 1494 1494 1495 1495 1496 1498 1500 1502 1505 1507 1509 1512 1515 1518 1521 1523 1525 1528 1530 1532 1533 1535 1536 1538 1540 1542 1544 1546 1548 1550 1552 1554 1556 1558 1559 1561 1562 1563 1564 1565 1565
1494 1493 1493 1492 1493 1493 1494 1495 1497 1500 1502 1504 1506 1508 1510 1513 1516 1519 1521 1524 1527 1528 1530 1531 1533 1534 1536 1538 1540 1542 1544 1546 1548 1551 1553 1554 1556 1558 1559 1560 1561 1562 1563
1494 1492 1492 1491 1491 1491 1492 1493 1495 1497 1499 1500 1502 1505 1507 1510 1512 1515 1517 1520 1522 1525 1526 1528 1529 1531 1533 1535 1537 1539 1540 1542 1544 1547 1548 1551 1553 1555 1556 1557 1558 1559 1560
1494 1493 1491 1490 1490 1491 1491 1492 1494 1495 1497 1498 1500 1502 1504 1507 1509 1511 1514 1516 1519 1521 1523 1525 1527 1529 1531 1532 1534 1536 1537 1539 1541 1543 1545 1547 1549 1551 1553 1554 1555 1556 1557
1496 1494 1492 1491 1491 1491 1491 1492 1493 1495 1496 1498 1499 1500 1502 1504 1506 1508 1511 1513 1516 1517 1520 1522 1524 1526 1528 1530 1532 1534 1535 1536 1538 1540 1542 1544 1546 1548 1550 1551 1552 1553 1554
1498 1496 1494 1492 1492 1492 1492 1492 1493 1494 1496 1497 1498 1499 1501 1503 1505 1506 1508 1511 1513 1515 1517 1519 1521 1524 1526 1528 1530 1532 1533 1535 1537 1538 1540 1542 1544 1546 1547 1548 1550 1550 1551
1500 1498 1496 1495 1494 1493 1493 1493 1494 1495 1496 1497 1498 1499 1501 1502 1504 1505 1507 1509 1511 1513 1515 1517 1520 1522 1525 1527 1529 1530 1532 1534 1536 1538 1539 1540 1542 1544 1545 1546 1547 1548 1548
1503 1501 1499 1497 1496 1495 1495 1495 1495 1496 1496 1497 1498 1499 1500 1501 1503 1505 1506 1508 1510 1511 1514 1516 1519 1521 1523 1525 1527 1529 1531 1533 1535 1537 1538 1540 1541 1542 1544 1545 1545 1546 1546
1506 1504 1502 1500 1498 1498 1497 1497 1497 1497 1498 1498 1499 1500 1500 1501 1503 1505 1506 1508 1510 1512 1513 1516 1518 1520 1523 1525 1527 1528 1530 1532 1535 1537 1538 1540 1541 1542 1543 1544 1544 1544 1545
1509 1507 1505 1503 1502 1501 1500 1500 1500 1500 1500 1500 1501 1501 1502 1503 1504 1505 1507 1509 1510 1512 1514 1516 1518 1520 1522 1524 1526 1528 1530 1532 1534 1536 1538 1539 1541 1542 1543 1543 1543 1544 1544
1512 1510 1508 1507 1505 1504 1503 1503 1503 1502 1502 1502 1503 1503 1504 1504 1505 1507 1508 1510 1511 1513 1515 1517 1519 1520 1523 1524 1526 1528 1530 1532 1534 1536 1538 1539 1541 1542 1542 1543 1543 1543 1543
1515 1513 1511 1510 1508 1507 1507 1506 1505 1505 1505 1505 1505 1506 1506 1507 1508 1509 1510 1511 1513 1515 1516 1518 1519 1521 1523 1525 1526 1528 1530 1531 1533 1536 1538 1539 1540 1541 1542 1543 1543 1543 1543
1518 1516 1515 1513 1512 1510 1510 1509 1509 1508 1507 1507 1507 1508 1509 1509 1511 1512 1513 1514 1515 1516 1518 1519 1521 1523 1524 1526 1527 1529 1530 1532 1533 1535 1537 1538 1539 1541 1542 1543 1543 1543 1543